EW7643 Weather Reports


Display with metric or nautical units.
time (UTC)temp
F
wind
direction
speed
MPH
gust
MPH
rain 1hr
in
rain 24hr
in
rain mn
in
humidity
%
barometer
mb
20260831140007 83 338 0.0 2.0 0.00 0.01 0.00 80 1016.6
20260831134509 81 352 0.0 0.0 0.00 0.01 0.00 72 1016.5
20260831133009 79 109 0.0 0.0 0.00 0.01 0.00 64 1016.4
20260831131507 0 0.0 0.0 0.00 0.01 0.00 1016.2
20260831130007 0 0.0 0.0 0.00 0.01 0.00 1015.9
20260831124508 0 0.0 0.0 0.00 0.01 0.00 1015.7
20260831123010 0 0.0 0.0 0.00 0.01 0.00 1015.6
20260831121511 0 0.0 0.0 0.00 0.01 0.00 1015.4
20260831120013 0 0.0 0.0 0.00 0.01 0.00 1015.4
20260831114510 0 0.0 0.0 0.00 0.01 0.00 1015.1
20260831113014 0 0.0 0.0 0.00 0.01 0.00 1015.1
20260831111509 0 0.0 0.0 0.00 0.01 0.00 1015.0
20260831110017 0 0.0 0.0 0.00 0.01 0.00 1015.1
20260831104510 0 0.0 0.0 0.00 0.01 0.00 1015.1
20260831103013 0 0.0 0.0 0.00 0.01 0.00 1015.2
20260831101514 0 0.0 0.0 0.00 0.01 0.00 1015.1
20260831100013 0 0.0 0.0 0.00 0.01 0.00 1015.1
20260831094514 0 0.0 0.0 0.00 0.01 0.00 1015.2
20260831093016 0 0.0 0.0 0.00 0.01 0.00 1015.0
20260831091515 75 109 0.0 0.0 0.00 0.01 0.00 70 1014.9
20260831090014 75 109 0.0 0.0 0.00 0.01 0.00 70 1014.9
20260831084515 75 109 0.0 0.0 0.00 0.01 0.00 71 1015.0
20260831083013 75 109 0.0 0.0 0.00 0.01 0.00 71 1015.1
20260831081515 76 109 0.0 0.0 0.00 0.01 0.00 71 1015.2
20260831080016 76 109 0.0 0.0 0.00 0.01 0.00 72 1015.3
20260831074521 76 109 0.0 0.0 0.00 0.01 0.00 73 1015.3
20260831073019 76 109 0.0 0.0 0.00 0.01 0.00 74 1015.2
20260831071514 76 109 0.0 0.0 0.00 0.01 0.00 75 1015.3
20260831070027 77 109 0.0 0.0 0.00 0.01 0.00 77 1015.4
20260831064517 77 109 0.0 0.0 0.00 0.01 0.00 78 1015.4
20260831063018 78 109 0.0 0.0 0.00 0.01 0.00 78 1015.6
20260831061508 78 109 0.0 0.0 0.00 0.01 0.00 79 1015.7
20260831060015 79 109 0.0 0.0 0.00 0.01 0.00 81 1015.7
20260831054526 80 109 0.0 0.0 0.00 0.01 0.00 81 1015.6
20260831053019 80 109 0.0 0.0 0.00 0.01 0.00 81 1015.6
20260831051528 80 109 0.0 0.0 0.00 0.01 0.00 81 1015.4
20260831050012 80 109 0.0 0.0 0.00 0.01 0.00 81 1015.4
20260831044520 80 109 0.0 0.0 0.00 0.01 0.01 81 1015.5
20260831043027 80 109 0.0 0.0 0.00 0.01 0.01 80 1015.3
20260831041530 81 109 0.0 0.0 0.00 0.01 0.01 80 1015.4
20260831040027 81 109 0.0 0.0 0.00 0.01 0.01 80 1015.2
20260831034513 81 109 0.0 0.0 0.00 0.01 0.01 80 1015.2
20260831033032 81 109 0.0 0.0 0.00 0.01 0.01 79 1015.0
20260831031529 82 108 0.0 0.0 0.00 0.01 0.01 79 1015.0
20260831030027 82 108 0.0 0.0 0.00 0.01 0.01 78 1014.9
20260831024549 82 106 0.0 0.0 0.00 0.01 0.01 78 1014.7
20260831023015 83 106 0.0 0.0 0.00 0.01 0.01 77 1014.5
20260831021518 83 106 0.0 0.0 0.00 0.01 0.01 76 1014.4
20260831020027 84 106 0.0 1.0 0.00 0.01 0.01 76 1014.3
20260831014535 84 101 0.0 2.0 0.01 0.01 0.01 75 1014.2
20260831013027 84 122 0.0 1.0 0.01 0.01 0.01 75 1014.2
20260831011518 85 105 0.0 3.0 0.01 0.01 0.01 73 1014.0
20260831010023 86 89 0.0 0.0 0.01 0.02 0.01 72 1014.0
20260831004528 87 109 0.0 2.0 0.00 0.01 0.00 70 1014.0
20260831003026 87 127 0.0 2.0 0.00 0.01 0.00 68 1014.0
20260831001528 88 109 0.0 2.0 0.00 0.01 0.00 66 1014.0
20260831000019 89 111 0.0 0.0 0.00 0.01 0.00 62 1014.1
20260830234529 90 100 0.0 0.0 0.00 0.01 0.00 57 1014.0
20260830233030 91 110 0.0 0.0 0.00 0.01 0.00 57 1013.8
20260830231509 92 97 0.0 2.0 0.00 0.01 0.00 55 1013.9
20260830230019 94 100 0.0 1.0 0.00 0.01 0.00 52 1013.8
20260830224529 94 94 0.0 0.0 0.00 0.01 0.00 52 1013.9
20260830223032 95 122 0.0 0.0 0.00 0.01 0.00 51 1013.8
20260830221530 95 114 0.0 0.0 0.00 0.01 0.00 50 1013.7
20260830220011 96 105 0.0 1.0 0.00 0.01 0.00 50 1013.6
20260830214515 96 99 0.0 1.0 0.00 0.01 0.00 49 1013.6
20260830213028 95 94 0.0 0.0 0.00 0.01 0.00 55 1013.7
20260830211532 93 72 0.0 0.0 0.00 0.01 0.00 58 1014.0
20260830210034 93 76 0.0 0.0 0.00 0.01 0.00 56 1014.1
20260830204516 93 100 0.0 0.0 0.00 0.01 0.00 56 1014.3
20260830203030 92 89 0.0 0.0 0.00 0.01 0.00 59 1014.4
20260830201541 93 98 0.0 0.0 0.00 0.01 0.00 59 1014.7
20260830200027 94 63 0.0 0.0 0.00 0.01 0.00 56 1015.0
20260830194531 97 59 0.0 0.0 0.00 0.01 0.00 53 1015.1
20260830193014 99 107 0.0 0.0 0.00 0.01 0.00 48 1015.3
20260830191524 99 112 0.0 0.0 0.00 0.01 0.00 45 1015.5
20260830190034 98 108 0.0 1.0 0.00 0.01 0.00 47 1015.7
20260830184531 97 285 0.0 2.0 0.00 0.01 0.00 45 1016.1
20260830183036 97 77 0.0 0.0 0.00 0.01 0.00 46 1016.2
20260830181516 96 71 0.0 0.0 0.00 0.01 0.00 47 1016.5
20260830180024 96 68 0.0 0.0 0.00 0.01 0.00 51 1016.7
20260830174531 96 122 0.0 0.0 0.00 0.01 0.00 54 1016.9
20260830173008 94 116 0.0 0.0 0.00 0.01 0.00 49 1017.1
20260830171511 95 116 0.0 0.0 0.00 0.01 0.00 53 1017.3
20260830170018 94 106 0.0 2.0 0.00 0.01 0.00 55 1017.2
20260830164510 93 70 0.0 0.0 0.00 0.01 0.00 56 1017.3
20260830163007 92 63 0.0 0.0 0.00 0.01 0.00 58 1017.3
20260830161508 92 79 0.0 1.0 0.00 0.01 0.00 61 1017.4
20260830160016 91 296 0.0 0.0 0.00 0.01 0.00 61 1017.4
20260830154520 91 60 0.0 0.0 0.00 0.01 0.00 65 1017.3
20260830153003 89 113 0.0 0.0 0.00 0.01 0.00 67 1017.3
20260830151504 89 113 0.0 0.0 0.00 0.01 0.00 69 1017.4
20260830150011 88 101 0.0 0.0 0.00 0.01 0.00 71 1017.4
20260830144517 87 179 0.0 2.0 0.00 0.01 0.00 74 1017.4
20260830143028 89 89 0.0 0.0 0.00 0.01 0.00 70 1017.5
20260830141503 89 129 0.0 0.0 0.00 0.01 0.00 74 1017.4